AWG49 LROP-LRTM

Flight info

Callsign AWG49
Flight time 0h 41m
Altitude 22000
Route DENAK DCT DOKUD
Aircraft A320/M-SDE3FGHIRWY/LB1

Departure

Time 2026-05-07 17:55
Airport Bucharest Henri Coandă International Airport (LROP)

Arrival

Time 2026-05-07 18:36
Airport Târgu Mureş Transilvania International Airport (LRTM)
Time Latitude Longitude Altitude Speed Heading
2026-05-07 17:32 44.57148 26.08165 317 ft 0 kts 174°
2026-05-07 17:48 44.57149 26.08165 317 ft 0 kts 174°
2026-05-07 17:48 44.57164 26.08163 317 ft 2 kts 174°
2026-05-07 17:48 44.57181 26.08161 315 ft 2 kts 174°
2026-05-07 17:48 44.57197 26.08156 316 ft 2 kts 144°
2026-05-07 17:49 44.57208 26.08140 315 ft 2 kts 97°
2026-05-07 17:49 44.57208 26.08134 316 ft 0 kts 88°
2026-05-07 17:50 44.57209 26.08142 315 ft 3 kts 88°
2026-05-07 17:51 44.57215 26.08209 316 ft 10 kts 83°
2026-05-07 17:51 44.57226 26.08343 317 ft 17 kts 84°
2026-05-07 17:51 44.57245 26.08493 318 ft 10 kts 42°
2026-05-07 17:51 44.57296 26.08492 318 ft 9 kts 354°
2026-05-07 17:52 44.57376 26.08481 321 ft 14 kts 355°
2026-05-07 17:52 44.57492 26.08464 324 ft 19 kts 354°
2026-05-07 17:52 44.57560 26.08453 322 ft 0 kts 353°
2026-05-07 17:53 44.57567 26.08452 323 ft 2 kts 353°
2026-05-07 17:54 44.57597 26.08449 324 ft 8 kts 355°
2026-05-07 17:54 44.57664 26.08490 325 ft 14 kts 64°
2026-05-07 17:54 44.57682 26.08670 325 ft 31 kts 89°
2026-05-07 17:54 44.57734 26.09350 316 ft 104 kts 84°
2026-05-07 17:55 44.57827 26.10612 387 ft 149 kts 84°
2026-05-07 17:55 44.57931 26.11964 1118 ft 138 kts 86°
2026-05-07 17:55 44.58043 26.13306 1708 ft 141 kts 86°
2026-05-07 17:55 44.58148 26.14724 2125 ft 154 kts 88°
2026-05-07 17:56 44.58254 26.16282 2525 ft 168 kts 86°
2026-05-07 17:56 44.58376 26.18022 2860 ft 190 kts 86°
2026-05-07 17:56 44.58533 26.19974 3241 ft 213 kts 85°
2026-05-07 17:56 44.58705 26.22136 3730 ft 232 kts 85°
2026-05-07 17:57 44.58910 26.24437 4397 ft 244 kts 83°
2026-05-07 17:57 44.59063 26.26030 4820 ft 253 kts 83°
2026-05-07 17:57 44.59353 26.29457 5610 ft 276 kts 84°
2026-05-07 17:57 44.59544 26.32184 6394 ft 285 kts 85°
2026-05-07 17:58 44.59845 26.34956 7194 ft 291 kts 69°
2026-05-07 17:58 44.61051 26.37237 7946 ft 294 kts 37°
2026-05-07 17:58 44.62805 26.38701 8864 ft 295 kts 19°
2026-05-07 17:58 44.64795 26.39284 9773 ft 293 kts 357°
2026-05-07 17:59 44.66773 26.38751 10558 ft 291 kts 333°
2026-05-07 17:59 44.68449 26.37118 11031 ft 304 kts 310°
2026-05-07 17:59 44.69812 26.34712 11329 ft 325 kts 307°
2026-05-07 17:59 44.71292 26.32176 11588 ft 347 kts 308°
2026-05-07 18:00 44.72912 26.29503 11755 ft 370 kts 309°
2026-05-07 18:00 44.74651 26.26688 11892 ft 392 kts 309°
2026-05-07 18:00 44.76481 26.23752 12227 ft 404 kts 309°
2026-05-07 18:00 44.78349 26.20759 12776 ft 409 kts 310°
2026-05-07 18:01 44.80236 26.17728 13356 ft 414 kts 310°
2026-05-07 18:01 44.82140 26.14656 13943 ft 418 kts 310°
2026-05-07 18:01 44.84029 26.11590 14464 ft 421 kts 310°
2026-05-07 18:01 44.85949 26.08455 15011 ft 424 kts 309°
2026-05-07 18:02 44.89817 26.02125 16116 ft 428 kts 309°
2026-05-07 18:02 44.91768 25.98930 16652 ft 431 kts 309°
2026-05-07 18:02 44.93728 25.95716 17169 ft 433 kts 309°
2026-05-07 18:03 44.95699 25.92482 17700 ft 436 kts 309°
2026-05-07 18:03 44.97680 25.89226 18185 ft 438 kts 309°
2026-05-07 18:03 44.99669 25.85953 18618 ft 440 kts 309°
2026-05-07 18:03 45.01668 25.82660 19035 ft 443 kts 309°
2026-05-07 18:04 45.03677 25.79347 19443 ft 445 kts 309°
2026-05-07 18:04 45.05769 25.76116 19828 ft 448 kts 316°
2026-05-07 18:04 45.08346 25.73614 20204 ft 454 kts 332°
2026-05-07 18:04 45.11279 25.71894 20552 ft 458 kts 337°
2026-05-07 18:05 45.14254 25.70254 20927 ft 460 kts 337°
2026-05-07 18:05 45.17248 25.68616 21276 ft 462 kts 337°
2026-05-07 18:05 45.20257 25.66974 21629 ft 465 kts 337°
2026-05-07 18:05 45.23281 25.65321 21956 ft 467 kts 337°
2026-05-07 18:06 45.26315 25.63655 22059 ft 467 kts 337°
2026-05-07 18:06 45.29341 25.61989 22066 ft 466 kts 337°
2026-05-07 18:06 45.32362 25.60311 22065 ft 466 kts 336°
2026-05-07 18:06 45.35383 25.58653 22076 ft 466 kts 337°
2026-05-07 18:07 45.38419 25.56987 22058 ft 469 kts 336°
2026-05-07 18:07 45.41468 25.55328 22059 ft 470 kts 336°
2026-05-07 18:07 45.44518 25.53653 22059 ft 470 kts 336°
2026-05-07 18:07 45.47568 25.51978 22049 ft 470 kts 336°
2026-05-07 18:08 45.50612 25.50289 22052 ft 470 kts 336°
2026-05-07 18:08 45.53655 25.48602 22055 ft 469 kts 336°
2026-05-07 18:08 45.55669 25.47479 22058 ft 469 kts 336°
2026-05-07 18:08 45.58708 25.45784 22053 ft 469 kts 336°
2026-05-07 18:09 45.61745 25.44090 22051 ft 468 kts 336°
2026-05-07 18:09 45.64779 25.42400 22057 ft 468 kts 336°
2026-05-07 18:09 45.67821 25.40719 22036 ft 469 kts 336°
2026-05-07 18:09 45.70851 25.39047 21619 ft 463 kts 336°
2026-05-07 18:10 45.73845 25.37398 20779 ft 459 kts 336°
2026-05-07 18:10 45.76814 25.35768 19989 ft 455 kts 337°
2026-05-07 18:10 45.79745 25.34143 19272 ft 449 kts 337°
2026-05-07 18:10 45.82644 25.32525 18559 ft 445 kts 336°
2026-05-07 18:11 45.85518 25.30902 18188 ft 444 kts 336°
2026-05-07 18:11 45.88392 25.29268 17913 ft 444 kts 336°
2026-05-07 18:11 45.91262 25.27631 17651 ft 443 kts 336°
2026-05-07 18:11 45.94124 25.25995 17396 ft 443 kts 336°
2026-05-07 18:12 45.96946 25.24379 17134 ft 443 kts 336°
2026-05-07 18:12 45.99806 25.22747 16877 ft 441 kts 336°
2026-05-07 18:12 46.02657 25.21120 16632 ft 440 kts 336°
2026-05-07 18:12 46.05497 25.19494 16369 ft 439 kts 336°
2026-05-07 18:13 46.08330 25.17869 16113 ft 437 kts 336°
2026-05-07 18:13 46.11154 25.16248 15865 ft 436 kts 336°
2026-05-07 18:13 46.13964 25.14620 15616 ft 435 kts 336°
2026-05-07 18:13 46.16765 25.12992 15370 ft 434 kts 336°
2026-05-07 18:14 46.19563 25.11371 15126 ft 432 kts 336°
2026-05-07 18:14 46.22352 25.09761 14893 ft 432 kts 336°
2026-05-07 18:14 46.25140 25.08153 14657 ft 432 kts 336°
2026-05-07 18:14 46.27926 25.06548 14414 ft 430 kts 336°
2026-05-07 18:15 46.30702 25.04949 14174 ft 429 kts 336°
2026-05-07 18:15 46.33471 25.03356 13939 ft 428 kts 336°
2026-05-07 18:15 46.36231 25.01769 13926 ft 427 kts 336°
2026-05-07 18:15 46.38997 25.00172 13996 ft 428 kts 336°
2026-05-07 18:16 46.41722 24.98597 14007 ft 411 kts 336°
2026-05-07 18:16 46.44312 24.97100 14008 ft 391 kts 336°
2026-05-07 18:16 46.46779 24.95677 14009 ft 372 kts 337°
2026-05-07 18:16 46.49243 24.94871 14006 ft 358 kts 356°
2026-05-07 18:17 46.51658 24.95297 14012 ft 344 kts 16°
2026-05-07 18:17 46.53794 24.96689 14010 ft 330 kts 33°
2026-05-07 18:17 46.55516 24.98772 14014 ft 316 kts 49°
2026-05-07 18:17 46.56752 25.01311 14014 ft 301 kts 65°
2026-05-07 18:18 46.57465 25.04085 14015 ft 288 kts 81°
2026-05-07 18:18 46.57682 25.06893 14013 ft 273 kts 95°
2026-05-07 18:18 46.57455 25.09578 14015 ft 265 kts 109°
2026-05-07 18:18 46.56830 25.12057 14016 ft 259 kts 122°
2026-05-07 18:19 46.55864 25.14239 14018 ft 255 kts 134°
2026-05-07 18:19 46.54624 25.16047 14021 ft 251 kts 146°
2026-05-07 18:19 46.53171 25.17407 14022 ft 247 kts 157°
2026-05-07 18:19 46.51600 25.18402 14021 ft 246 kts 162°
2026-05-07 18:20 46.49990 25.19243 14014 ft 246 kts 164°
2026-05-07 18:20 46.48371 25.20029 14016 ft 251 kts 165°
2026-05-07 18:20 46.46675 25.20841 14015 ft 259 kts 165°
2026-05-07 18:20 46.45000 25.21658 14010 ft 249 kts 164°
2026-05-07 18:21 46.43361 25.22467 14019 ft 253 kts 164°
2026-05-07 18:21 46.41705 25.23231 14021 ft 247 kts 170°
2026-05-07 18:21 46.40020 25.23574 14014 ft 243 kts 180°
2026-05-07 18:21 46.38341 25.23430 14017 ft 241 kts 191°
2026-05-07 18:22 46.36717 25.22802 13874 ft 242 kts 202°
2026-05-07 18:22 46.35709 25.22125 13698 ft 241 kts 209°
2026-05-07 18:22 46.33916 25.20195 13352 ft 240 kts 224°
2026-05-07 18:22 46.32854 25.18337 13087 ft 240 kts 235°
2026-05-07 18:23 46.32073 25.16209 12833 ft 241 kts 246°
2026-05-07 18:23 46.31607 25.13880 12568 ft 242 kts 257°
2026-05-07 18:23 46.31483 25.11441 12305 ft 245 kts 269°
2026-05-07 18:23 46.31711 25.08997 12052 ft 247 kts 280°
2026-05-07 18:24 46.32289 25.06650 11798 ft 249 kts 292°
2026-05-07 18:24 46.33205 25.04506 11552 ft 252 kts 304°
2026-05-07 18:24 46.34431 25.02673 11299 ft 255 kts 317°
2026-05-07 18:24 46.35918 25.01253 11054 ft 258 kts 330°
2026-05-07 18:25 46.37558 25.00193 10809 ft 258 kts 335°
2026-05-07 18:25 46.39225 24.99310 10563 ft 258 kts 338°
2026-05-07 18:25 46.40924 24.98478 10330 ft 258 kts 339°
2026-05-07 18:25 46.42623 24.97661 10086 ft 257 kts 339°
2026-05-07 18:26 46.44312 24.96844 9897 ft 255 kts 338°
2026-05-07 18:26 46.46016 24.96007 9773 ft 255 kts 338°
2026-05-07 18:26 46.47728 24.95310 9630 ft 257 kts 354°
2026-05-07 18:26 46.49489 24.95662 9503 ft 258 kts 23°
2026-05-07 18:27 46.50930 24.97160 9373 ft 256 kts 53°
2026-05-07 18:27 46.51772 24.99438 9254 ft 271 kts 72°
2026-05-07 18:27 46.52750 25.01948 9125 ft 298 kts 47°
2026-05-07 18:27 46.54525 25.03506 9003 ft 303 kts 13°
2026-05-07 18:28 46.56595 25.03517 8872 ft 298 kts 342°
2026-05-07 18:28 46.58577 25.02623 8745 ft 299 kts 340°
2026-05-07 18:28 46.60398 25.01277 8622 ft 291 kts 315°
2026-05-07 18:28 46.61625 24.99015 8480 ft 283 kts 292°
2026-05-07 18:29 46.62185 24.96319 8364 ft 277 kts 272°
2026-05-07 18:29 46.62081 24.93570 8234 ft 271 kts 253°
2026-05-07 18:29 46.61357 24.91084 8096 ft 265 kts 234°
2026-05-07 18:29 46.60126 24.89141 7667 ft 262 kts 215°
2026-05-07 18:30 46.58554 24.87835 7254 ft 260 kts 207°
2026-05-07 18:30 46.56953 24.86622 6890 ft 259 kts 207°
2026-05-07 18:30 46.55363 24.85413 6511 ft 257 kts 207°
2026-05-07 18:30 46.53784 24.84204 6066 ft 257 kts 209°
2026-05-07 18:31 46.52442 24.82541 5788 ft 252 kts 232°
2026-05-07 18:31 46.51713 24.80299 5648 ft 243 kts 256°
2026-05-07 18:31 46.51674 24.77902 5337 ft 244 kts 279°
2026-05-07 18:31 46.52121 24.75530 5018 ft 243 kts 284°
2026-05-07 18:32 46.52546 24.73176 4695 ft 239 kts 276°
2026-05-07 18:32 46.52501 24.70800 4361 ft 235 kts 256°
2026-05-07 18:32 46.52068 24.68533 4041 ft 232 kts 253°
2026-05-07 18:32 46.51787 24.66250 3723 ft 230 kts 265°
2026-05-07 18:33 46.51604 24.63974 3535 ft 222 kts 263°
2026-05-07 18:33 46.51439 24.61808 3537 ft 213 kts 261°
2026-05-07 18:33 46.51019 24.59746 3485 ft 215 kts 245°
2026-05-07 18:33 46.50284 24.57862 3216 ft 214 kts 241°
2026-05-07 18:34 46.49574 24.56001 3109 ft 211 kts 242°
2026-05-07 18:34 46.48998 24.54102 2863 ft 200 kts 255°
2026-05-07 18:34 46.48749 24.52212 2611 ft 178 kts 264°
2026-05-07 18:34 46.48561 24.50569 2318 ft 161 kts 257°
2026-05-07 18:35 46.48302 24.49015 1971 ft 152 kts 256°
2026-05-07 18:35 46.48027 24.47559 1680 ft 145 kts 253°
2026-05-07 18:35 46.47731 24.46168 1470 ft 143 kts 255°
2026-05-07 18:35 46.47479 24.44770 1300 ft 143 kts 253°
2026-05-07 18:36 46.47192 24.43391 1117 ft 143 kts 253°
2026-05-07 18:36 46.46922 24.42012 984 ft 137 kts 255°
2026-05-07 18:36 46.46697 24.40855 961 ft 90 kts 254°
2026-05-07 18:36 46.46600 24.40357 962 ft 31 kts 254°
2026-05-07 18:37 46.46548 24.40068 961 ft 24 kts 259°
2026-05-07 18:37 46.46521 24.40019 960 ft 1 kts 154°
2026-05-07 18:37 46.46519 24.40022 964 ft 0 kts 142°
2026-05-07 18:37 46.46522 24.40078 963 ft 13 kts 78°
2026-05-07 18:38 46.46586 24.40284 963 ft 35 kts 71°
2026-05-07 18:38 46.46676 24.40730 958 ft 55 kts 73°
2026-05-07 18:38 46.46783 24.41298 959 ft 57 kts 75°
2026-05-07 18:38 46.46868 24.41731 960 ft 40 kts 73°
2026-05-07 18:39 46.46944 24.42116 958 ft 37 kts 73°
2026-05-07 18:39 46.46954 24.42231 960 ft 1 kts 137°
2026-05-07 18:39 46.46936 24.42243 959 ft 5 kts 161°
2026-05-07 18:39 46.46886 24.42263 960 ft 10 kts 164°
2026-05-07 18:40 46.46824 24.42329 961 ft 10 kts 95°
2026-05-07 18:40 46.46834 24.42357 959 ft 0 kts 67°
2026-05-07 18:46 46.46834 24.42358 959 ft 0 kts 67°
2026-05-07 18:48 46.46843 24.42388 963 ft 0 kts 67°
2026-05-07 18:48 46.46853 24.42426 963 ft 0 kts 67°
2026-05-07 18:48 46.46841 24.42537 963 ft 0 kts 67°
2026-05-07 18:50 46.46822 24.42436 964 ft 542 kts 67°
2026-05-07 18:50 46.46860 24.42549 961 ft 0 kts 67°